sat.trackr.live / text

‹ back to catalog

STARLINK-3452

NORAD 51744 · 2022-016AG

PAYLOAD ACTIVE UNKNOWN

§ Identity

Operator
Country
US
Launch date
2022-02-21
Launch site
AFETR
Launch vehicle
Mass (kg)
RCS (m²)

Purposes: comms

External: N2YO · Heavens-Above · Gunter

§ Orbital elements

Epoch: 2026-09-20T04:12:38.790144Z

Period
93.90 min
Inclination
53.1587°
Eccentricity
0.0001180
Mean motion
15.33541327 rev/d
Perigee alt
464.4 km
Apogee alt
466.1 km
Semi-major
6,843.4 km
B*
-2.2539e-5
RAAN
151.4444°
Arg perigee
99.0458°
Mean anomaly
261.0678°
Rev number
25,312

§ Raw data

STARLINK-34521 51744U 22016AG  26263.17544896 -.00001114  00000+0 -22539-4 0  99982 51744  53.1587 151.4444 0001180  99.0458 261.0678 15.33541327253127

JSON: /api/v1/satellites/51744 · /tle

For live sub-satellite position, see the globe view (requires WebGL).

§ Visibility from observer

Set your observer location to see the next 7 days of passes ≥ 10°. The values pass through the URL so the page stays shareable.

No JS? Fill the form by hand. The geolocation button needs JavaScript.